User: anonymous   Login
Location: Ostrava
(49.8330°N, 18.2830°E)
Time: 00:56:16
(UTC+01:00)
Language:

Iridium 7 - Orbit

View from above orbital plane
View from above orbital plane
View from above satellite
View from above satellite

Ground track
Ground track

The orbit data is extracted from the following two-line orbital elements,

1 24793U 97020B   17323.32468376  .00000089  00000-0  24834-4 0  9990
2 24793  86.3981 254.0968 0002186  81.4911 278.6533 14.34235119 75433
Epoch (UTC): 19 November 2017 07:47:32
Eccentricity: 0.0002186
inclination: 86.3981°
perigee height: 776 km
apogee height: 779 km
right ascension of ascending node: 254.0968°
argument of perigee: 81.4911°
revolutions per day: 14.34235119
mean anomaly at epoch: 278.6533°
orbit number at epoch: 7543

The dashed part of the orbit path shows where the satellite is in the earth's shadow,  

DLR